Waarnemingen

Advertentie
Mijn weer
Norrkoping, Zweden (2574): temperatuur & dauwpunt: 21.04.2018 08:00:00 - 27.04.2018 08:00:00 (CEST)Norrkoping, Zweden (2574): windsnelheid & windstoten: 21.04.2018 08:00:00 - 27.04.2018 08:00:00 (CEST)Norrkoping, Zweden (2574): windrichting: 21.04.2018 08:00:00 - 27.04.2018 08:00:00 (CEST)Norrkoping, Zweden (2574): luchtdruk: 21.04.2018 08:00:00 - 27.04.2018 08:00:00 (CEST)Norrkoping, Zweden (2574): zicht: 21.04.2018 08:00:00 - 27.04.2018 08:00:00 (CEST)Norrkoping, Zweden (2574): neerslag: 21.04.2018 08:00:00 - 27.04.2018 08:00:00 (CEST)
Datum & Tijd tt [°C] td [°C] ff [km/u] ff [kn] fx [km/u] fx [kn] dd ppp [hPa] vv [km] rr [mm]
27.04.2018 08:00:00 6,4 3,4 12 7 23 12 ZW 1006,7 40 0,0
27.04.2018 07:00:00 5,8 3,0 11 6 21 11 ZW 1006,2 35 0,0
27.04.2018 06:00:00 5,8 3,0 10 5 21 12 ZW 1005,9 34 0,0
27.04.2018 05:00:00 5,9 3,1 11 6 22 12 WZW 1005,4 40 0,0
27.04.2018 04:00:00 6,2 3,2 11 6 21 11 W 1005,3 41 0,0
27.04.2018 03:00:00 5,6 3,3 6 3 15 8 ZZW 1005,2 46 0,0
27.04.2018 02:00:00 5,8 3,3 7 4 18 10 ZW 1005,2 50 0,0
27.04.2018 01:00:00 5,6 3,1 7 4 16 9 WZW 1005,2 50 0,0
27.04.2018 00:00:00 6,4 3,9 10 6 19 11 WZW 1004,8 50 0,0
26.04.2018 23:00:00 6,8 4,3 7 4 12 7 ZW 1004,4 50 0,1
26.04.2018 22:00:00 7,5 4,5 7 4 22 12 ZW 1004,0 30 0,1
26.04.2018 21:00:00 7,9 3,0 9 5 33 18 WZW 1003,9 50 0,0
26.04.2018 20:00:00 10,0 1,9 14 7 29 16 WZW 1003,1 50 0,0
26.04.2018 19:00:00 11,6 1,2 13 7 31 17 W 1002,4 50 0,0
26.04.2018 18:00:00 11,7 2,4 11 6 26 14 W 1002,1 50 0,0
26.04.2018 17:00:00 10,9 0,9 11 6 38 20 W 1002,5 42 0,0
26.04.2018 16:00:00 11,6 2,9 21 11 42 23 WZW 1002,1 50 0,0
26.04.2018 15:00:00 12,7 2,5 18 10 37 20 ZW 1001,7 40 0,0
26.04.2018 14:00:00 12,2 3,2 14 7 31 17 W 1001,7 43 0,0
26.04.2018 13:00:00 10,4 3,0 16 8 29 16 W 1001,9 48 0,0
26.04.2018 12:00:00 9,9 3,2 13 7 27 15 W 1001,8 50 0,0
26.04.2018 11:00:00 9,3 3,7 10 5 31 17 W 1001,6 46 0,0
26.04.2018 10:00:00 8,7 3,7 11 6 26 14 W 1001,3 44 0,0
26.04.2018 09:00:00 7,4 4,4 13 7 27 14 W 1001,0 33 0,0
26.04.2018 08:00:00 6,5 4,0 13 7 21 11 WZW 1000,7 25 0,0
26.04.2018 07:00:00 4,4 3,1 8 4 15 8 ZW 1000,3 23 0,0
26.04.2018 06:00:00 4,0 3,0 5 3 15 8 ZW 1000,2 17 0,0
26.04.2018 05:00:00 3,7 2,7 8 4 19 10 W 999,9 18 0,0
26.04.2018 04:00:00 3,8 2,8 8 5 20 11 W 999,8 22 0,0
26.04.2018 03:00:00 4,1 3,1 9 5 17 9 W 999,7 25 0,0
26.04.2018 02:00:00 4,3 3,0 9 5 18 10 ZW 999,6 50 0,0
26.04.2018 01:00:00 4,5 3,0 10 5 16 9 WZW 999,4 50 0,0
26.04.2018 00:00:00 4,4 3,1 7 4 15 8 W 999,4 50 0,0
25.04.2018 23:00:00 4,9 3,2 8 5 18 10 ZW 999,2 50 0,0
25.04.2018 22:00:00 5,8 4,0 9 5 24 13 ZW 998,9 50 0,1
25.04.2018 21:00:00 6,3 4,5 5 3 47 25 ZZW 998,6 50 1,8
25.04.2018 20:00:00 7,7 2,8 16 8 35 19 W 997,7 9 0,4
25.04.2018 19:00:00 11,3 2,3 11 6 29 15 WZW 997,1 49 0,0
25.04.2018 18:00:00 12,1 3,3 8 4 26 14 W 997,0 35 0,0
25.04.2018 17:00:00 11,7 3,0 14 8 25 14 W 997,2 40 0,0
25.04.2018 16:00:00 10,7 2,8 11 6 23 12 WZW 997,3 41 0,0
25.04.2018 15:00:00 9,9 3,4 12 6 29 16 W 997,5 40 0,0
25.04.2018 14:00:00 9,5 3,9 13 7 28 15 WZW 997,7 38 0,0
25.04.2018 13:00:00 9,4 3,6 14 7 27 14 WZW 997,7 36 0,0
25.04.2018 12:00:00 8,3 3,4 15 8 27 15 W 997,9 38 0,0
25.04.2018 11:00:00 8,7 3,7 11 6 32 18 W 998,2 24 0,0
25.04.2018 10:00:00 7,7 3,4 19 10 35 19 WZW 998,4 31 0,0
25.04.2018 09:00:00 7,7 3,9 17 9 29 16 WZW 998,2 31 0,0
25.04.2018 08:00:00 7,1 3,2 18 10 29 16 WZW 998,4 35 0,0
25.04.2018 07:00:00 6,9 3,5 10 6 22 12 W 998,2 38 0,0
25.04.2018 06:00:00 6,6 3,4 10 6 27 14 W 998,3 34 0,0
25.04.2018 05:00:00 6,8 3,8 13 7 29 15 WZW 998,4 34 0,0
25.04.2018 04:00:00 6,9 3,9 15 8 37 20 W 998,8 32 0,0
25.04.2018 03:00:00 7,2 4,2 17 9 31 17 WZW 998,7 33 0,0
25.04.2018 02:00:00 7,5 4,6 17 9 31 17 W 998,6 41 0,0
25.04.2018 01:00:00 7,5 5,5 14 7 30 16 W 998,5 50 0,0
25.04.2018 00:00:00 7,5 6,0 15 8 32 17 W 998,3 30 0,0
24.04.2018 23:00:00 7,4 6,2 12 7 31 17 WZW 998,1 15 0,0
24.04.2018 22:00:00 8,0 6,0 13 7 31 17 WZW 997,8 31 0,0
24.04.2018 21:00:00 8,4 6,5 14 8 29 15 WZW 997,6 50 0,0
24.04.2018 20:00:00 8,7 6,8 11 6 26 14 WZW 997,3 50 0,0
24.04.2018 19:00:00 9,3 7,9 10 5 21 11 WZW 997,1 50 0,2
24.04.2018 18:00:00 9,0 8,2 5 3 14 8 ZZW 997,5 12 0,3
24.04.2018 17:00:00 8,8 7,6 7 4 16 8 Z 998,1 38 0,2
24.04.2018 16:00:00 8,4 6,9 9 5 23 13 ZZW 999,0 7 0,2
24.04.2018 15:00:00 10,4 6,4 12 7 31 17 WZW 999,7 50 0,0
24.04.2018 14:00:00 8,9 6,9 8 5 26 14 ZW 1000,6 29 0,6
24.04.2018 13:00:00 9,0 5,7 14 7 26 14 WZW 1001,1 8 0,2
24.04.2018 12:00:00 10,2 4,3 16 8 34 18 WZW 1001,4 50 0,0
24.04.2018 11:00:00 10,6 4,5 18 10 45 24 W 1001,6 45 0,0
24.04.2018 10:00:00 9,6 4,4 21 11 41 22 WZW 1002,0 39 0,0
24.04.2018 09:00:00 9,1 4,3 18 10 39 21 WZW 1002,1 37 0,0
24.04.2018 08:00:00 8,1 3,9 16 9 35 19 WZW 1002,2 41 0,0
24.04.2018 07:00:00 7,6 3,6 19 11 40 22 WZW 1002,2 45 0,0
24.04.2018 06:00:00 7,5 3,9 13 7 36 20 WZW 1002,0 45 0,0
24.04.2018 05:00:00 7,9 4,8 15 8 35 19 WZW 1002,0 40 0,0
24.04.2018 04:00:00 8,2 5,3 13 7 27 15 WZW 1002,1 47 0,0
24.04.2018 03:00:00 8,4 5,2 16 9 30 16 WZW 1002,2 50 0,0
24.04.2018 02:00:00 8,2 5,5 15 8 25 14 ZW 1002,3 50 0,0
24.04.2018 01:00:00 7,9 5,4 13 7 22 12 ZW 1002,6 50 0,0
24.04.2018 00:00:00 7,8 5,9 8 5 16 9 ZW 1003,0 50 0,0
23.04.2018 23:00:00 7,9 6,4 8 4 20 11 ZW 1003,0 50 0,0
23.04.2018 22:00:00 8,6 6,6 10 6 24 13 ZZW 1003,0 12 0,5
23.04.2018 21:00:00 8,9 5,8 7 4 14 7 ZZW 1002,9 50 0,0
23.04.2018 20:00:00 9,5 5,7 8 5 24 13 WZW 1002,8 50 0,0
23.04.2018 19:00:00 10,9 6,6 12 6 31 17 WZW 1002,6 48 0,0
23.04.2018 18:00:00 10,1 8,2 8 4 16 9 ZW 1002,8 24 0,0
23.04.2018 17:00:00 6,6 6,0 5 3 19 10 Z 1003,4 9 0,0
23.04.2018 16:00:00 6,0 5,3 9 5 19 10 ZZO 1003,8 40 2,7
23.04.2018 15:00:00 5,4 4,7 11 6 31 17 ZZO 1004,4 4,6 2,2
23.04.2018 14:00:00 5,6 4,4 16 8 35 19 OZO 1004,4 19 3,1
23.04.2018 13:00:00 6,6 3,2 11 6 34 18 ZO 1006,6 11 0,9
23.04.2018 12:00:00 9,6 0,5 16 9 35 19 ZO 1006,9 50 0,0
23.04.2018 11:00:00 9,9 0,8 17 9 34 18 ZO 1007,7 50 0,0
23.04.2018 10:00:00 9,9 0,8 19 10 35 19 ZO 1008,2 42 0,0
23.04.2018 09:00:00 9,1 1,5 14 8 31 17 ZO 1009,4 48 0,0
23.04.2018 08:00:00 8,2 1,4 10 5 22 12 ZZO 1010,5 42 0,0
23.04.2018 07:00:00 4,8 0,4 7 4 15 8 OZO 1011,0 50 0,0
23.04.2018 06:00:00 3,0 0,2 5 3 11 6 O 1011,8 50 0,0
23.04.2018 05:00:00 4,0 0,3 5 3 13 7 ZO 1012,8 50 0,0
23.04.2018 04:00:00 3,8 0,1 5 3 9 5 O 1013,3 48 0,0
23.04.2018 03:00:00 4,6 -0,4 5 3 12 6 O 1013,6 47 0,0
23.04.2018 02:00:00 6,1 -0,4 6 3 10 6 ZO 1014,1 50 0,0
23.04.2018 01:00:00 6,7 -1,0 4 2 14 8 O 1014,6 50 0,0
23.04.2018 00:00:00 8,0 -1,0 9 5 21 11 ZZO 1014,6 50 0,0
22.04.2018 23:00:00 8,7 -1,1 8 5 19 10 ZZO 1014,6 50 0,0
22.04.2018 22:00:00 9,7 -0,5 9 5 18 10 ZZO 1014,5 50 0,0
22.04.2018 21:00:00 11,1 -0,1 6 4 20 11 ZZO 1014,6 50 0,0
22.04.2018 20:00:00 12,8 -0,1 10 5 24 13 ZZO 1014,3 50 0,0
22.04.2018 19:00:00 14,8 0,2 6 3 18 10 ZZO 1014,0 50 0,0
22.04.2018 18:00:00 16,4 -1,7 3 2 10 6 WNW 1014,2 50 0,0
22.04.2018 17:00:00 15,5 -2,5 5 3 12 7 NW 1014,5 45 0,0
22.04.2018 16:00:00 15,7 -1,8 5 3 17 9 ZW 1014,9 50 0,0
22.04.2018 15:00:00 16,0 -1,1 7 4 17 9 WNW 1015,4 45 0,0
22.04.2018 14:00:00 15,1 -1,5 9 5 18 10 WNW 1015,7 49 0,0
22.04.2018 13:00:00 13,9 -1,3 7 4 17 9 W 1015,9 50 0,0
22.04.2018 12:00:00 12,8 -1,2 9 5 19 10 WNW 1016,1 48 0,0
22.04.2018 11:00:00 12,3 -0,3 7 4 14 7 W 1016,1 50 0,0
22.04.2018 10:00:00 10,9 -1,2 5 3 12 6 O 1016,0 44 0,0
22.04.2018 09:00:00 9,7 -1,1 5 3 12 6 N 1015,9 46 0,0
22.04.2018 08:00:00 8,2 -0,1 6 3 12 7 WNW 1015,9 47 0,0
22.04.2018 07:00:00 6,3 0,8 3 1 6 3 W 1015,7 50 0,0
22.04.2018 06:00:00 4,0 0,2 2 1 7 4 W 1015,5 50 0,0
22.04.2018 05:00:00 4,2 0,3 2 1 7 4 WZW 1015,1 50 0,0
22.04.2018 04:00:00 6,0 0,9 2 1 10 5 W 1014,8 50 0,0
22.04.2018 03:00:00 6,6 1,1 4 2 19 11 WNW 1014,2 50 0,0
22.04.2018 02:00:00 7,1 1,4 8 4 19 10 W 1013,9 50 0,0
22.04.2018 01:00:00 8,6 1,3 8 5 21 11 W 1013,4 50 0,0
22.04.2018 00:00:00 9,1 1,7 6 4 18 10 W 1013,0 50 0,0
21.04.2018 23:00:00 10,0 1,6 8 4 24 13 W 1012,8 50 0,0
21.04.2018 22:00:00 11,4 1,1 7 4 22 12 W 1012,5 50 0,0
21.04.2018 21:00:00 12,4 0,8 9 5 24 13 W 1012,6 50 0,0
21.04.2018 20:00:00 13,7 0,3 11 6 28 15 W 1012,1 50 0,0
21.04.2018 19:00:00 15,6 0,2 12 7 30 16 W 1011,9 50 0,0
21.04.2018 18:00:00 16,7 -0,5 14 8 34 19 W 1011,8 50 0,0
21.04.2018 17:00:00 17,1 -0,2 14 8 36 19 W 1011,5 44 0,0
21.04.2018 16:00:00 17,0 -1,2 15 8 40 22 W 1011,6 44 0,0
21.04.2018 15:00:00 17,0 -0,7 16 9 39 21 W 1011,6 48 0,0
21.04.2018 14:00:00 16,2 1,1 17 9 32 17 WNW 1011,5 42 0,0
21.04.2018 13:00:00 16,1 1,8 16 8 31 17 W 1011,4 49 0,0
21.04.2018 12:00:00 15,2 1,7 14 8 31 17 WNW 1011,5 44 0,0
21.04.2018 11:00:00 14,5 1,7 14 7 26 14 WNW 1011,1 42 0,0
21.04.2018 10:00:00 13,1 2,0 12 7 27 15 WNW 1010,7 40 0,0
21.04.2018 09:00:00 11,3 2,1 13 7 26 14 WNW 1010,1 43 0,0
21.04.2018 08:00:00 9,9 2,7 11 6 26 14 W 1009,9 40 0,0

tt = temperatuur
td = dauwpunt
ff = windsnelheid
fx = windstoten
dd = windrichting
ppp = luchtdruk
vv = zicht
rr = neerslag

Weerstations in de omgeving